Location: ???????
(55.3754°N, 39.3545°E)
Time: 20:19:59
(UTC+00:00)

NOSS 3-1 (C) - Pass Details

Date: 14 April 2026
Orbit: 618 x 1583 km, 63.4° (Epoch: 10 January)

Event Time Altitude Azimuth Distance (km) Brightness Sun altitude
Rises 20:01:35 0° 310° (NW) 3,627 7.5 -22.8°
Reaches altitude 10° 20:03:56 10° 307° (NW) 2,803 6.7 -22.9°
Maximum altitude 20:10:33 62° 228° (SW) 1,334 4.0 -23.3°
Enters shadow 20:13:20 41° 168° (SSE) 1,765 4.3 -23.4°
